| time (UTC) | temp C | wind direction | speed KPH | gust KPH | rain 1hr cm | rain 24hr cm | rain mn cm | humidity % | barometer mb |
| 20260506002518 | 20 | 135 | 1.6 | 4.8 | 0.00 | 0.00 | 0.00 | 62 | 1013.8 |
| 20260506001518 | 20 | 0.0 | 4.8 | 0.00 | 0.00 | 0.00 | 61 | 1013.8 | |
| 20260506000522 | 20 | 0.0 | 1.6 | 0.00 | 0.00 | 0.00 | 62 | 1013.9 | |
| 20260505235517 | 20 | 0.0 | 4.8 | 0.00 | 0.00 | 0.00 | 63 | 1014.0 | |
| 20260505234537 | 19 | 0.0 | 1.6 | 0.00 | 0.00 | 0.00 | 66 | 1014.1 | |
| 20260505233539 | 19 | 0.0 | 4.8 | 0.00 | 0.00 | 0.00 | 66 | 1014.2 | |
| 20260505232538 | 19 | 270 | 1.6 | 4.8 | 0.00 | 0.00 | 0.00 | 68 | 1014.3 |
| 20260505231517 | 19 | 270 | 1.6 | 6.4 | 0.00 | 0.00 | 0.00 | 64 | 1014.4 |
| 20260505230517 | 18 | 270 | 1.6 | 8.0 | 0.00 | 0.00 | 0.00 | 67 | 1014.5 |
| 20260505225517 | 18 | 0.0 | 3.2 | 0.00 | 0.00 | 0.00 | 70 | 1014.4 | |
| 20260505224538 | 17 | 0.0 | 1.6 | 0.00 | 0.00 | 0.00 | 70 | 1014.5 | |
| 20260505223518 | 17 | 0.0 | 6.4 | 0.00 | 0.00 | 0.00 | 70 | 1014.7 | |
| 20260505222517 | 17 | 0.0 | 1.6 | 0.00 | 0.00 | 0.00 | 71 | 1014.8 | |
| 20260505221518 | 17 | 270 | 1.6 | 6.4 | 0.00 | 0.00 | 0.00 | 71 | 1014.9 |
| 20260505220517 | 17 | 270 | 1.6 | 6.4 | 0.00 | 0.00 | 0.00 | 69 | 1014.8 |
| 20260505215518 | 17 | 0.0 | 4.8 | 0.00 | 0.00 | 0.00 | 70 | 1014.8 | |
| 20260505214517 | 17 | 0.0 | 3.2 | 0.00 | 0.00 | 0.00 | 71 | 1015.0 | |
| 20260505213517 | 17 | 0.0 | 3.2 | 0.00 | 0.00 | 0.00 | 71 | 1015.1 | |
| 20260505212538 | 16 | 0.0 | 3.2 | 0.00 | 0.00 | 0.00 | 72 | 1015.1 | |
| 20260505211517 | 16 | 0.0 | 1.6 | 0.00 | 0.00 | 0.00 | 72 | 1015.1 | |
| 20260505210517 | 16 | 0.0 | 4.8 | 0.00 | 0.00 | 0.00 | 72 | 1015.1 | |
| 20260505205518 | 16 | 0.0 | 1.6 | 0.00 | 0.00 | 0.00 | 72 | 1015.1 | |
| 20260505204517 | 16 | 0.0 | 1.6 | 0.00 | 0.00 | 0.00 | 73 | 1015.2 | |
| 20260505203517 | 16 | 0.0 | 0.0 | 0.00 | 0.00 | 0.00 | 76 | 1015.2 | |
| 20260505202517 | 15 | 0.0 | 3.2 | 0.00 | 0.00 | 0.00 | 76 | 1015.2 | |
| 20260505201517 | 16 | 0.0 | 0.0 | 0.00 | 0.00 | 0.00 | 76 | 1015.1 | |
| 20260505200538 | 15 | 0.0 | 1.6 | 0.00 | 0.00 | 0.00 | 77 | 1015.2 | |
| 20260505195517 | 15 | 0.0 | 4.8 | 0.00 | 0.00 | 0.00 | 76 | 1015.2 | |
| 20260505194517 | 15 | 0.0 | 3.2 | 0.00 | 0.00 | 0.00 | 76 | 1015.2 | |
| 20260505193518 | 15 | 0.0 | 1.6 | 0.00 | 0.00 | 0.00 | 78 | 1015.2 | |
| 20260505192517 | 14 | 0.0 | 4.8 | 0.00 | 0.00 | 0.00 | 78 | 1015.2 | |
| 20260505191517 | 14 | 0.0 | 3.2 | 0.00 | 0.00 | 0.00 | 79 | 1015.2 | |
| 20260505190517 | 14 | 0.0 | 3.2 | 0.00 | 0.00 | 0.00 | 80 | 1015.2 | |
| 20260505185517 | 14 | 0.0 | 1.6 | 0.00 | 0.00 | 0.00 | 81 | 1015.2 | |
| 20260505184517 | 14 | 0.0 | 3.2 | 0.00 | 0.00 | 0.00 | 79 | 1015.3 | |
| 20260505183518 | 13 | 0.0 | 3.2 | 0.00 | 0.00 | 0.00 | 80 | 1015.2 | |
| 20260505182517 | 13 | 0.0 | 1.6 | 0.00 | 0.00 | 0.00 | 80 | 1015.2 | |
| 20260505181518 | 13 | 0.0 | 0.0 | 0.00 | 0.00 | 0.00 | 81 | 1015.2 | |
| 20260505180518 | 13 | 0.0 | 1.6 | 0.00 | 0.00 | 0.00 | 82 | 1015.2 | |
| 20260505175518 | 13 | 0.0 | 3.2 | 0.00 | 0.00 | 0.00 | 81 | 1015.1 | |
| 20260505174517 | 13 | 0.0 | 0.0 | 0.00 | 0.00 | 0.00 | 83 | 1015.2 | |
| 20260505173517 | 13 | 0.0 | 3.2 | 0.00 | 0.00 | 0.00 | 82 | 1015.1 | |
| 20260505172517 | 13 | 0.0 | 4.8 | 0.00 | 0.00 | 0.00 | 83 | 1015.0 | |
| 20260505171517 | 13 | 0.0 | 0.0 | 0.00 | 0.00 | 0.00 | 83 | 1015.0 | |
| 20260505170517 | 13 | 0.0 | 3.2 | 0.00 | 0.00 | 0.00 | 83 | 1015.0 | |
| 20260505165518 | 13 | 270 | 1.6 | 6.4 | 0.00 | 0.00 | 0.00 | 83 | 1014.9 |
| 20260505164537 | 13 | 0.0 | 0.0 | 0.00 | 0.00 | 0.00 | 83 | 1014.9 | |
| 20260505163517 | 12 | 0.0 | 0.0 | 0.00 | 0.00 | 0.00 | 83 | 1014.8 | |
| 20260505162517 | 12 | 0.0 | 1.6 | 0.00 | 0.00 | 0.00 | 83 | 1014.7 | |
| 20260505161518 | 12 | 0.0 | 0.0 | 0.00 | 0.00 | 0.00 | 84 | 1014.7 | |
| 20260505160517 | 12 | 0.0 | 4.8 | 0.00 | 0.00 | 0.00 | 83 | 1014.8 | |
| 20260505152516 | 12 | 0.0 | 0.0 | 0.00 | 0.00 | 0.00 | 85 | 1014.6 | |
| 20260505151516 | 12 | 0.0 | 4.8 | 0.00 | 0.00 | 0.00 | 85 | 1014.6 | |
| 20260505150517 | 12 | 0.0 | 1.6 | 0.00 | 0.00 | 0.00 | 85 | 1014.6 | |
| 20260505140517 | 12 | 0.0 | 4.8 | 0.00 | 0.00 | 0.00 | 85 | 1014.0 | |
| 20260505124517 | 12 | 0.0 | 3.2 | 0.00 | 0.00 | 0.00 | 86 | 1013.4 | |
| 20260505123516 | 12 | 0.0 | 0.0 | 0.00 | 0.00 | 0.00 | 86 | 1013.4 | |
| 20260505122517 | 12 | 0.0 | 0.0 | 0.00 | 0.00 | 0.00 | 86 | 1013.4 | |
| 20260505121516 | 12 | 0.0 | 3.2 | 0.00 | 0.00 | 0.00 | 86 | 1013.3 | |
| 20260505120516 | 12 | 0.0 | 4.8 | 0.00 | 0.00 | 0.00 | 86 | 1013.2 | |
| 20260505115516 | 12 | 0.0 | 0.0 | 0.00 | 0.00 | 0.00 | 86 | 1013.2 | |
| 20260505114516 | 12 | 0.0 | 0.0 | 0.00 | 0.00 | 0.00 | 86 | 1013.2 | |
| 20260505113517 | 12 | 0.0 | 0.0 | 0.00 | 0.00 | 0.00 | 86 | 1013.1 | |
| 20260505112516 | 12 | 0.0 | 0.0 | 0.00 | 0.00 | 0.00 | 86 | 1013.2 | |
| 20260505111517 | 12 | 0.0 | 0.0 | 0.00 | 0.00 | 0.00 | 86 | 1013.2 | |
| 20260505110516 | 12 | 0.0 | 0.0 | 0.00 | 0.00 | 0.00 | 86 | 1013.1 | |
| 20260505101517 | 12 | 0.0 | 1.6 | 0.00 | 0.00 | 0.00 | 86 | 1012.8 | |
| 20260505100518 | 12 | 0.0 | 1.6 | 0.00 | 0.00 | 0.00 | 86 | 1012.7 | |
| 20260505095518 | 12 | 0.0 | 3.2 | 0.00 | 0.00 | 0.00 | 87 | 1012.8 | |
| 20260505094519 | 11 | 0.0 | 4.8 | 0.00 | 0.00 | 0.00 | 87 | 1012.6 | |
| 20260505093519 | 11 | 0.0 | 1.6 | 0.00 | 0.00 | 0.00 | 87 | 1012.5 | |
| 20260505092518 | 11 | 0.0 | 0.0 | 0.00 | 0.00 | 0.00 | 87 | 1012.5 | |
| 20260505091519 | 11 | 0.0 | 1.6 | 0.00 | 0.00 | 0.00 | 87 | 1012.5 | |
| 20260505090518 | 11 | 0.0 | 0.0 | 0.00 | 0.00 | 0.00 | 87 | 1012.3 | |
| 20260505085519 | 11 | 0.0 | 0.0 | 0.00 | 0.00 | 0.00 | 86 | 1012.3 | |
| 20260505084518 | 10 | 0.0 | 0.0 | 0.00 | 0.00 | 0.00 | 86 | 1012.3 | |
| 20260505083518 | 10 | 0.0 | 0.0 | 0.00 | 0.00 | 0.00 | 86 | 1012.2 | |
| 20260505082518 | 10 | 0.0 | 0.0 | 0.00 | 0.00 | 0.00 | 87 | 1012.3 | |
| 20260505081519 | 10 | 0.0 | 0.0 | 0.00 | 0.00 | 0.00 | 87 | 1012.2 | |
| 20260505080518 | 11 | 0.0 | 0.0 | 0.00 | 0.00 | 0.00 | 87 | 1012.1 | |
| 20260505075518 | 11 | 0.0 | 0.0 | 0.00 | 0.00 | 0.00 | 87 | 1012.0 | |
| 20260505074539 | 11 | 0.0 | 0.0 | 0.00 | 0.00 | 0.00 | 87 | 1011.9 | |
| 20260505073538 | 11 | 0.0 | 0.0 | 0.00 | 0.00 | 0.00 | 87 | 1011.8 | |
| 20260505072540 | 11 | 0.0 | 0.0 | 0.00 | 0.00 | 0.00 | 87 | 1011.7 | |
| 20260505071538 | 11 | 0.0 | 0.0 | 0.00 | 0.00 | 0.00 | 86 | 1011.5 | |
| 20260505070538 | 11 | 0.0 | 0.0 | 0.00 | 0.00 | 0.00 | 86 | 1011.5 | |
| 20260505065518 | 11 | 0.0 | 0.0 | 0.00 | 0.00 | 0.00 | 86 | 1011.4 | |
| 20260505064517 | 11 | 0.0 | 0.0 | 0.00 | 0.00 | 0.00 | 86 | 1011.4 | |
| 20260505063517 | 12 | 0.0 | 0.0 | 0.00 | 0.00 | 0.00 | 86 | 1011.3 | |
| 20260505062518 | 12 | 0.0 | 0.0 | 0.00 | 0.00 | 0.00 | 85 | 1011.1 | |
| 20260505061537 | 12 | 0.0 | 0.0 | 0.00 | 0.00 | 0.00 | 85 | 1011.0 | |
| 20260505060518 | 12 | 0.0 | 0.0 | 0.00 | 0.00 | 0.00 | 85 | 1011.0 | |
| 20260505055518 | 12 | 0.0 | 1.6 | 0.00 | 0.00 | 0.00 | 84 | 1010.8 | |
| 20260505054519 | 13 | 0.0 | 4.8 | 0.00 | 0.00 | 0.00 | 84 | 1010.7 | |
| 20260505053518 | 13 | 0.0 | 3.2 | 0.00 | 0.00 | 0.00 | 83 | 1010.7 | |
| 20260505052517 | 13 | 0.0 | 3.2 | 0.00 | 0.00 | 0.00 | 83 | 1010.6 | |
| 20260505051518 | 13 | 0.0 | 0.0 | 0.00 | 0.00 | 0.00 | 82 | 1010.5 | |
| 20260505050538 | 13 | 0.0 | 0.0 | 0.00 | 0.00 | 0.00 | 81 | 1010.4 | |
| 20260505041518 | 15 | 0.0 | 6.4 | 0.00 | 0.00 | 0.00 | 76 | 1009.8 | |
| 20260505040517 | 16 | 315 | 1.6 | 6.4 | 0.00 | 0.00 | 0.00 | 75 | 1009.8 |
| 20260505035519 | 16 | 0.0 | 4.8 | 0.00 | 0.00 | 0.00 | 73 | 1009.7 | |
| 20260505034538 | 16 | 0.0 | 6.4 | 0.00 | 0.00 | 0.00 | 71 | 1009.6 | |
| 20260505033517 | 17 | 0.0 | 3.2 | 0.00 | 0.00 | 0.00 | 70 | 1009.4 | |
| 20260505032517 | 17 | 0.0 | 9.7 | 0.00 | 0.00 | 0.00 | 68 | 1009.2 | |
| 20260505031519 | 18 | 270 | 1.6 | 16.1 | 0.00 | 0.00 | 0.00 | 66 | 1009.0 |
| 20260505030537 | 18 | 0.0 | 3.2 | 0.00 | 0.00 | 0.00 | 65 | 1008.9 | |
| 20260505025517 | 20 | 0.0 | 8.0 | 0.00 | 0.00 | 0.00 | 63 | 1008.8 | |
| 20260505024517 | 20 | 0.0 | 4.8 | 0.00 | 0.00 | 0.00 | 62 | 1008.6 | |
| 20260505023517 | 20 | 0.0 | 4.8 | 0.00 | 0.00 | 0.00 | 60 | 1008.6 | |
| 20260505022517 | 21 | 248 | 1.6 | 8.0 | 0.00 | 0.00 | 0.00 | 58 | 1008.5 |
| 20260505021517 | 22 | 248 | 1.6 | 6.4 | 0.00 | 0.00 | 0.00 | 55 | 1008.5 |
| 20260505020518 | 22 | 270 | 1.6 | 6.4 | 0.00 | 0.00 | 0.00 | 54 | 1008.4 |
| 20260505015538 | 22 | 0.0 | 6.4 | 0.00 | 0.00 | 0.00 | 53 | 1008.4 | |
| 20260505014517 | 23 | 248 | 1.6 | 8.0 | 0.00 | 0.00 | 0.00 | 52 | 1008.4 |
| 20260505013518 | 23 | 0.0 | 3.2 | 0.00 | 0.00 | 0.00 | 51 | 1008.4 | |
| 20260505012538 | 24 | 270 | 3.2 | 11.3 | 0.00 | 0.00 | 0.00 | 49 | 1008.4 |
| 20260505011517 | 24 | 248 | 1.6 | 9.7 | 0.00 | 0.00 | 0.00 | 51 | 1008.4 |
| 20260505010518 | 25 | 270 | 1.6 | 4.8 | 0.00 | 0.00 | 0.00 | 50 | 1008.4 |
| 20260505005517 | 25 | 270 | 1.6 | 9.7 | 0.00 | 0.00 | 0.00 | 51 | 1008.5 |
| 20260505004517 | 25 | 270 | 3.2 | 14.5 | 0.00 | 0.00 | 0.00 | 49 | 1008.4 |
| 20260505003517 | 25 | 0.0 | 8.0 | 0.00 | 0.00 | 0.00 | 50 | 1008.4 |